Regional Weather Roundup
Issued by NWS

Home | Current Version | Previous Version | Text Only | Print | Product List | Glossary Off
Versions: 1 2 3 4 5 6 7 8 9 10 11 12 13 14 15 16 17 18 19 20 21 22 23 24 25 26 27 28 29 30 31 32 33 34 35 36 37 38 39 40 41 42 43 44 45 46 47 48 49 50

000
ASUS43 KLMK 240002
RWRKY
KENTUCKY REGIONAL WEATHER ROUNDUP
NATIONAL WEATHER SERVICE LOUISVILLE KY
800 PM EDT WED JUL 23 2014

NOTE "FAIR" INDICATES FEW OR NO CLOUDS BELOW 12,000 FEET
WITH NO SIGNIFICANT WEATHER AND/OR OBSTRUCTIONS TO VISIBILITY.

KYZ001>023-026-027-061>063-070>075-240100-
WESTERN AND SOUTH CENTRAL KENTUCKY

CITY           SKY/WX    TMP DP  RH WIND       PRES   REMARKS
PADUCAH        PTSUNNY   82  70  66 N3        29.98F
HENDERSON      CLOUDY    77  70  78 NW10      29.98S
OWENSBORO      CLOUDY    79  71  76 N6        29.98S
HOPKINSVILLE   PTSUNNY   81  69  67 N6        29.98R
BOWLING GREEN  MOSUNNY   83  69  62 NW9G18    29.96R
GLASGOW        MOCLDY    79  68  70 CALM      29.95S
$$

KYZ024-025-028>034-038-045-046-053-240100-
NORTH CENTRAL KENTUCKY

CITY           SKY/WX    TMP DP  RH WIND       PRES   REMARKS
LOUISVILLE/SDF PTSUNNY   83  68  60 N9        29.95R
LOUISVILLE/LOU MOSUNNY   84  68  58 N6        29.96R
FORT KNOX      MOSUNNY   80  69  69 NW2       29.96R
$$

KYZ035>037-039>044-047>052-055>060-089>105-240100-
NORTHEAST KENTUCKY

CITY           SKY/WX    TMP DP  RH WIND       PRES   REMARKS
LEXINGTON      MOCLDY    83  69  62 W6        29.97R
COVINGTON      MOCLDY    79  70  74 N7        29.97S
FRANKFORT      PTCLDY    83  67  58 NW8       29.96R
$$

KYZ054-064>069-076>088-106>120-240100-
SOUTHEAST KENTUCKY

CITY           SKY/WX    TMP DP  RH WIND       PRES   REMARKS
JACKSON        LGT RAIN  71  66  84 VRB5      30.01R
LONDON         MOCLDY    79  69  71 W3        29.99S
SOMERSET       CLOUDY    77  66  69 N8        29.98R
MIDDLESBORO    CLEAR     76  70  81 SE3       30.00R
MONTICELLO     CLOUDY    77  73  87 SW13G18   30.01R THUNDER FOG
$$




USA.gov is the U.S. government's official web portal to all federal, state and local government web resources and services.